Location: Newark
(41.8083°N, 72.2500°W)
Time: 11:09:35
(UTC+00:00)

Altair - Pass Details

Date: 05 December 2021
Orbit: 1501 x 1683 km, 47.2° (Epoch: 27 January)

Event Time Altitude Azimuth Distance (km) Brightness Sun altitude
Rises 01:24:17 0° 295° (WNW) 4,678 10.8 -45.0°
Reaches altitude 10° 01:27:20 10° 295° (WNW) 3,679 10.0 -45.6°
Enters shadow 01:32:54 43° 293° (WNW) 2,023 8.2 -46.6°
